Погода в Герлосе

Австрия     47°13′28″N   12°01′55″E
темп.,
°C
ветер,
м/с
пор.,
м/с
влажн.,
%
обл.,
%
осадки,
мм/ч
давл.,
гПа
погр.,
м
14 мая, пт
пт1423:00+1ссз1199100 0.4 1009342
02:00+1с22100100 1.1 1010302
05:00+1с2298100 0.4 1010286
08:00+1ссв019064 0.6 1010252
11:00+5с216398 0.1 10081253
14:00+6ссв226399 0.5 10071320
17:00+5ссв227176 0.7 1007754
20:00+3с2388100 1.3 1009121
15 мая, сб
сб1523:00+2ссз1296100 0.9 1011114
02:00+2ссз1198100 2.8 1012128
05:00+1ссз22100100 1.4 1011318
08:00+1ссв22100100 3.4 1013139
11:00+2всв1197100 0.9 1011228
14:00+5юз1287100 1.1 1007619
17:00+6ююз2379100 0.3 1005666
20:00+4юз1292100 0.5 100683
16 мая, вс
вс1623:00+2ссз1199100 1.4 1008447
02:00+1сз11100100 5.4 101196
05:00+1в1199100 0.1 1011103
08:00+2ссв008692 0.1 1011173
11:00+6ююв12678 0.0 1008962
14:00+9ююз226572 0.5 10051180
17:00+5св229275 1.9 1006407
20:00+3ссв119999 3.6 1009226
17 мая, пн
пн1723:00+2ссв23100100 1.8 1010456
02:00+1св11100100 8.4 1011115
05:00+1св11100100 1.9 1011124
08:00+1св12100100 3.5 1011155
11:00+2ссв22100100 1.5 1011196
14:00+1ссв33100100 4.2 1012183
17:00+2ссв1198100 1.3 1013238
20:00+1ссв12100100 2.4 1014220
18 мая, вт
вт1823:00+1всв019999 0.5 1014159
02:00−2ю229539 0.6 101621
05:00−1ююз229476 0.0 101638
08:000з129683 0.1 1017246
11:00+2ссз3299100 0.8 1017448
14:00+1с239990 2.7 1019256
17:00+3с3388100 1.5 1019617
20:000ссв229585 2.8 102235